EW6958 Weather Reports


Display with metric or nautical units.
time (UTC)temp
F
wind
direction
speed
MPH
gust
MPH
rain 1hr
in
rain 24hr
in
rain mn
in
humidity
%
barometer
mb
20200702154617 72 294 6.0 8.0 0.00 0.21 0.00 51 1011.0
20200702153617 72 229 6.0 11.0 0.00 0.25 0.00 52 1010.0
20200702152618 0 225 7.0 7.0 0.00 0.25 0.00 1010.0
20200702151618 73 267 5.0 7.0 0.00 0.25 0.00 57 1010.0
20200702150617 0 190 5.0 9.0 0.00 0.25 0.00 1011.0
20200702145617 71 248 6.0 6.0 0.00 0.25 0.00 61 1011.0
20200702144616 72 238 8.0 11.0 0.00 0.25 0.00 63 1011.0
20200702143617 0 231 5.0 6.0 0.00 0.25 0.00 1011.0
20200702142617 71 202 5.0 6.0 0.00 0.25 0.00 68 1012.0
20200702141617 69 267 4.0 5.0 0.00 0.25 0.00 72 1012.0
20200702140617 0 248 3.0 3.0 0.00 0.25 0.00 1012.0
20200702135617 67 270 3.0 3.0 0.00 0.25 0.00 70 1012.0
20200702134618 68 238 7.0 7.0 0.00 0.25 0.00 68 1012.0
20200702133617 69 270 6.0 8.0 0.00 0.24 0.00 65 1012.0
20200702132618 69 255 6.0 6.0 0.00 0.25 0.00 65 1012.0
20200702131618 69 265 6.0 8.0 0.00 0.25 0.00 64 1012.0
20200702130619 70 283 8.0 8.0 0.00 0.25 0.00 61 1011.0
20200702125617 70 266 9.0 19.0 0.00 0.25 0.00 61 1011.0
20200702124617 0 230 6.0 11.0 0.00 0.25 0.00 1011.0
20200702123617 70 251 5.0 6.0 0.00 0.25 0.00 60 1012.0
20200702122617 70 238 7.0 8.0 0.00 0.25 0.00 59 1011.0
20200702121618 70 277 6.0 7.0 0.00 0.25 0.00 58 1011.0
20200702120619 70 285 8.0 8.0 0.00 0.25 0.00 58 1011.0
20200702115617 71 226 4.0 6.0 0.00 0.25 0.00 57 1011.0
20200702114618 71 257 5.0 9.0 0.00 0.24 0.00 56 1011.0
20200702113618 71 242 7.0 9.0 0.00 0.25 0.00 55 1011.0
20200702112617 71 223 8.0 9.0 0.00 0.24 0.00 55 1011.0
20200702111617 71 275 6.0 9.0 0.00 0.25 0.00 55 1011.0
20200702110617 72 254 5.0 9.0 0.00 0.25 0.00 54 1011.0
20200702105618 72 281 7.0 9.0 0.00 0.25 0.00 54 1011.0
20200702104618 72 264 6.0 7.0 0.00 0.24 0.00 54 1011.0
20200702103617 72 230 6.0 10.0 0.00 0.29 0.00 53
20200702102617 73 275 7.0 9.0 0.00 0.29 0.00 54 1010.0
20200702101618 73 230 3.0 11.0 0.00 0.29 0.00 55 1010.0
20200702100619 73 277 9.0 10.0 0.00 0.29 0.00 56 1010.0
20200702095618 73 263 6.0 6.0 0.00 0.29 0.00 57 1011.0
20200702094619 71 255 6.0 8.0 0.00 0.29 0.00 56 1011.0
20200702093620 72 248 8.0 12.0 0.00 0.41 0.00 55 1010.0
20200702092619 71 232 6.0 8.0 0.00 0.41 0.00 56 1011.0
20200702091617 71 272 8.0 13.0 0.00 0.41 0.00 57 1011.0
20200702090617 72 243 7.0 11.0 0.00 0.41 0.00 60 1010.0
20200702085618 71 278 5.0 10.0 0.00 0.41 0.00 64 1010.0
20200702084617 0 239 5.0 8.0 0.00 0.41 0.00 1010.0
20200702083617 69 276 7.0 11.0 0.00 0.41 0.00 65 1010.0
20200702082617 69 252 5.0 11.0 0.00 0.41 0.00 67 1010.0
20200702081616 68 293 7.0 9.0 0.00 0.41 0.00 68 1010.0
20200702080617 67 275 8.0 9.0 0.00 0.41 0.00 71 1011.0
20200702075618 67 246 5.0 7.0 0.00 0.41 0.00 75 1011.0
20200702074617 67 230 7.0 10.0 0.00 0.41 0.00 74 1011.0
20200702073617 65 282 7.0 14.0 0.00 0.41 0.00 77 1010.0
20200702072617 65 270 10.0 12.0 0.00 0.41 0.00 77 1011.0
20200702071617 65 231 6.0 8.0 0.00 0.41 0.00 80 1011.0
20200702070617 64 239 6.0 7.0 0.00 0.41 0.00 84 1010.0
20200702065617 0 242 8.0 10.0 0.00 0.41 0.00 1010.0
20200702064617 63 260 6.0 9.0 0.00 0.41 0.00 86 1010.0
20200702063617 62 272 7.0 8.0 0.00 0.46 0.00 86 1010.0
20200702062617 62 265 7.0 10.0 0.00 0.46 0.00 88 1010.0
20200702061622 62 221 6.0 7.0 0.00 0.46 0.00 89 1010.0
20200702060618 61 254 9.0 10.0 0.00 0.46 0.00 90 1009.0
20200702055618 61 220 6.0 7.0 0.00 0.46 0.00 92 1009.0
20200702054624 61 253 6.0 7.0 0.00 0.46 0.00 93 1009.0
20200702053616 61 256 7.0 11.0 0.00 0.46 0.00 93 1009.0
20200702052618 61 222 6.0 8.0 0.00 0.45 0.00 95 1009.0
20200702051618 60 264 4.0 4.0 0.00 0.46 0.00 96 1009.0
20200702050618 0 238 5.0 7.0 0.00 0.46 0.00 1010.0
20200702045618 60 260 3.0 4.0 0.00 0.46 0.00 97 1010.0
20200702044618 59 248 4.0 4.0 0.00 0.46 0.00 97 1010.0
20200702043620 59 238 3.0 6.0 0.00 0.54 0.00 97 1010.0
20200702042619 59 233 4.0 6.0 0.00 0.54 0.00 97 1010.0
20200702041618 60 221 4.0 5.0 0.00 0.54 0.00 97 1010.0
20200702040616 60 244 4.0 4.0 0.00 0.54 0.00 97 1010.0
20200702035618 59 244 4.0 5.0 0.00 0.54 0.00 97 1010.0
20200702034618 59 270 4.0 6.0 0.00 0.53 0.00 97 1010.0
20200702033617 60 283 4.0 5.0 0.00 0.58 0.00 98 1010.0
20200702032618 60 245 3.0 5.0 0.00 0.58 0.00 98 1009.0
20200702031617 60 245 3.0 5.0 0.00 0.57 0.00 98 1009.0
20200702030616 60 225 3.0 4.0 0.00 0.58 0.00 98 1009.0
20200702025618 60 240 4.0 4.0 0.00 0.58 0.00 98 1009.0
20200702024617 60 225 3.0 5.0 0.00 0.58 0.00 98 1009.0
20200702023619 60 213 3.0 4.0 0.00 0.58 0.00 98 1009.0
20200702022618 60 227 4.0 6.0 0.00 0.58 0.00 98 1009.0
20200702021620 60 248 3.0 6.0 0.00 0.58 0.00 98 1009.0
20200702020617 0 200 3.0 3.0 0.00 0.58 0.00 1009.0
20200702015618 60 243 3.0 3.0 0.00 0.58 0.00 98 1009.0
20200702014618 60 238 2.0 3.0 0.00 0.58 0.00 98 1009.0
20200702013617 60 227 1.0 2.0 0.00 0.58 0.00 98 1009.0
20200702012618 59 225 0.0 1.0 0.00 0.58 0.00 98 1009.0
20200702011618 59 203 1.0 1.0 0.00 0.58 0.00 98 1009.0
20200702010621 59 0.0 0.0 0.00 0.58 0.00 98 1009.0
20200702005618 59 0.0 0.0 0.00 0.58 0.00 98 1009.0
20200702004617 59 0.0 0.0 0.00 0.58 0.00 98 1009.0
20200702003618 59 0.0 0.0 0.00 0.58 0.00 98 1009.0
20200702002618 59 0.0 0.0 0.00 0.58 0.00 98 1009.0
20200702001622 59 0.0 0.0 0.00 0.58 0.00 97 1009.0
20200702000618 59 0.0 0.0 0.00 0.58 0.00 97 1009.0
20200701235617 59 0.0 0.0 0.00 0.57 0.00 97 1009.0
20200701234617 59 0.0 0.0 0.00 0.58 0.00 97 1009.0
20200701233617 59 248 1.0 2.0 0.00 0.58 0.00 97 1010.0
20200701232617 59 0.0 1.0 0.00 0.58 0.00 97 1009.0
20200701231617 59 0.0 1.0 0.00 0.58 0.00 97 1009.0
20200701230618 60 0.0 0.0 0.00 0.58 0.00 97 1009.0
20200701225620 60 0.0 0.0 0.00 0.58 0.00 97 1009.0
20200701224618 60 0.0 1.0 0.00 0.58 0.00 97 1009.0
20200701223617 60 218 1.0 2.0 0.00 0.58 0.00 97 1009.0
20200701222619 60 248 1.0 1.0 0.00 0.58 0.00 97 1009.0
20200701221617 60 0.0 1.0 0.00 0.58 0.00 97 1009.0
20200701220618 60 242 1.0 2.0 0.00 0.58 0.00 97 1009.0
20200701215618 0 203 1.0 2.0 0.00 0.58 0.57 1009.0
20200701214617 61 203 1.0 1.0 0.00 0.58 0.57 96 1009.0
20200701213619 0 0.0 0.0 0.00 0.58 0.57 1009.0
20200701212617 61 0.0 0.0 0.00 0.58 0.57 96 1009.0
20200701211620 61 266 1.0 2.0 0.00 0.58 0.57 96 1009.0
20200701210619 61 252 2.0 3.0 0.00 0.58 0.57 96 1009.0
20200701205621 61 262 2.0 4.0 0.00 0.58 0.57 95 1009.0
20200701204618 0 259 2.0 3.0 0.00 0.58 0.57 1009.0
20200701203618 62 248 0.0 1.0 0.00 0.58 0.57 94 1008.0
20200701202619 62 254 3.0 3.0 0.00 0.58 0.57 94 1008.0
20200701201617 62 242 3.0 4.0 0.00 0.58 0.57 94 1008.0
20200701200617 63 231 2.0 3.0 0.00 0.57 0.57 94 1008.0
20200701195618 0 220 2.0 4.0 0.00 0.58 0.57 1007.0
20200701194622 64 228 3.0 5.0 0.00 0.58 0.57 95 1007.0
20200701193618 0 254 3.0 4.0 0.03 0.57 0.57 1008.0
20200701192618 65 248 5.0 9.0 0.00 0.58 0.57 96 1008.0
20200701191617 65 207 3.0 4.0 0.00 0.58 0.57 96 1008.0
20200701190618 65 293 5.0 5.0 0.00 0.58 0.57 96 1008.0
20200701185619 65 254 5.0 9.0 0.00 0.58 0.57 95 1008.0
20200701184619 66 177 5.0 6.0 0.00 0.58 0.57 96 1008.0
20200701183618 66 248 4.0 4.0 0.04 0.54 0.54 95 1007.0
20200701182618 66 283 4.0 4.0 0.04 0.54 0.54 96 1008.0
20200701181618 66 254 3.0 3.0 0.00 0.50 0.49 96 1008.0
20200701180617 66 248 2.0 5.0 0.00 0.50 0.49 96 1007.0
20200701175617 66 220 3.0 4.0 0.00 0.50 0.49 96 1007.0
20200701174624 66 248 0.0 2.0 0.00 0.50 0.49 96 1007.0
20200701173619 66 285 3.0 4.0 0.00 0.50 0.49 96 1007.0
20200701172617 66 270 5.0 8.0 0.00 0.50 0.49 96 1008.0
20200701171617 0 277 4.0 6.0 0.00 0.50 0.49 1008.0
20200701170616 66 248 5.0 6.0 0.00 0.50 0.49 97 1008.0
20200701165626 66 243 4.0 6.0 0.00 0.50 0.49 96 1008.0
20200701164617 66 244 2.0 4.0 0.00 0.50 0.49 96 1008.0
20200701163616 65 246 4.0 4.0 0.12 0.49 0.49 94 1008.0
20200701162618 65 253 4.0 6.0 0.12 0.49 0.49 92 1008.0
20200701161618 64 284 4.0 5.0 0.12 0.49 0.49 91 1008.0
20200701160617 64 280 4.0 5.0 0.12 0.49 0.49 90 1008.0
20200701155617 0 281 2.0 4.0 0.08 0.45 0.45 1008.0